| time (UTC) | temp F | wind direction | speed knots | gust knots | rain 1hr in | rain 24hr in | rain mn in | humidity % | barometer mb |
| 20260507145036 | 71 | 54 | 2.6 | 5.2 | 0.00 | 0.00 | 0.00 | 90 | 1016.8 |
| 20260507144504 | 71 | 28 | 1.7 | 5.2 | 0.00 | 0.00 | 0.00 | 90 | 1015.9 |
| 20260507144036 | 71 | 11 | 0.9 | 3.5 | 0.00 | 0.00 | 0.00 | 91 | 1016.8 |
| 20260507143057 | 71 | 17 | 1.7 | 4.3 | 0.00 | 0.00 | 0.00 | 91 | 1015.8 |
| 20260507143036 | 71 | 15 | 2.6 | 4.3 | 0.00 | 0.00 | 0.00 | 91 | 1016.7 |
| 20260507142036 | 71 | 10 | 2.6 | 5.2 | 0.00 | 0.00 | 0.00 | 91 | 1016.7 |
| 20260507141513 | 71 | 38 | 1.7 | 5.2 | 0.00 | 0.00 | 0.00 | 91 | 1015.8 |
| 20260507141036 | 71 | 29 | 1.7 | 4.3 | 0.00 | 0.00 | 0.00 | 91 | 1016.7 |
| 20260507140036 | 71 | 46 | 1.7 | 7.0 | 0.00 | 0.00 | 0.00 | 91 | 1016.6 |
| 20260507135036 | 72 | 74 | 2.6 | 7.0 | 0.00 | 0.00 | 0.00 | 91 | 1016.7 |
| 20260507134537 | 71 | 70 | 1.7 | 7.0 | 0.00 | 0.00 | 0.00 | 91 | 1015.6 |
| 20260507134036 | 71 | 80 | 5.2 | 7.0 | 0.00 | 0.00 | 0.00 | 91 | 1016.6 |
| 20260507133035 | 71 | 47 | 7.0 | 8.7 | 0.00 | 0.00 | 0.00 | 91 | 1016.6 |
| 20260507133010 | 71 | 52 | 6.1 | 8.7 | 0.00 | 0.00 | 0.00 | 91 | 1015.6 |
| 20260507132036 | 71 | 23 | 2.6 | 8.7 | 0.00 | 0.00 | 0.00 | 91 | 1016.7 |
| 20260507131608 | 71 | 78 | 5.2 | 8.7 | 0.00 | 0.00 | 0.00 | 91 | 1015.7 |
| 20260507131036 | 71 | 76 | 5.2 | 7.8 | 0.00 | 0.00 | 0.00 | 91 | 1016.7 |
| 20260507130038 | 71 | 49 | 5.2 | 8.7 | 0.00 | 0.00 | 0.00 | 91 | 1015.7 |
| 20260507130036 | 71 | 47 | 5.2 | 8.7 | 0.00 | 0.00 | 0.00 | 91 | 1016.7 |
| 20260507125036 | 71 | 58 | 3.5 | 6.1 | 0.00 | 0.00 | 0.00 | 92 | 1016.8 |
| 20260507124516 | 71 | 24 | 3.5 | 6.1 | 0.00 | 0.00 | 0.00 | 92 | 1015.7 |
| 20260507124036 | 72 | 77 | 3.5 | 6.1 | 0.00 | 0.00 | 0.00 | 92 | 1016.8 |
| 20260507123104 | 71 | 24 | 3.5 | 6.1 | 0.00 | 0.00 | 0.00 | 92 | 1016.0 |
| 20260507123036 | 71 | 34 | 5.2 | 6.1 | 0.00 | 0.00 | 0.00 | 92 | 1017.0 |
| 20260507122036 | 71 | 53 | 1.7 | 7.8 | 0.00 | 0.00 | 0.00 | 92 | 1017.0 |
| 20260507121537 | 71 | 27 | 3.5 | 10.4 | 0.00 | 0.00 | 0.00 | 92 | 1016.1 |
| 20260507121036 | 72 | 54 | 4.3 | 9.6 | 0.00 | 0.00 | 0.00 | 92 | 1017.1 |
| 20260507120036 | 72 | 17 | 4.3 | 7.8 | 0.00 | 0.00 | 0.00 | 92 | 1017.2 |
| 20260507120008 | 71 | 19 | 4.3 | 7.8 | 0.00 | 0.00 | 0.00 | 92 | 1016.2 |
| 20260507115036 | 72 | 62 | 2.6 | 7.8 | 0.00 | 0.00 | 0.00 | 92 | 1017.2 |
| 20260507114559 | 71 | 80 | 3.5 | 7.8 | 0.00 | 0.00 | 0.00 | 91 | 1016.3 |
| 20260507114036 | 72 | 85 | 3.5 | 7.0 | 0.00 | 0.00 | 0.00 | 91 | 1017.3 |
| 20260507113036 | 72 | 46 | 1.7 | 8.7 | 0.00 | 0.00 | 0.00 | 91 | 1017.5 |
| 20260507113034 | 71 | 60 | 4.3 | 8.7 | 0.00 | 0.00 | 0.00 | 91 | 1016.5 |
| 20260507112036 | 72 | 62 | 7.0 | 9.6 | 0.00 | 0.00 | 0.00 | 91 | 1017.6 |
| 20260507111514 | 71 | 37 | 5.2 | 8.7 | 0.00 | 0.00 | 0.00 | 91 | 1016.6 |
| 20260507111035 | 72 | 20 | 1.7 | 8.7 | 0.00 | 0.00 | 0.00 | 91 | 1017.6 |
| 20260507110059 | 71 | 40 | 3.5 | 7.8 | 0.00 | 0.00 | 0.00 | 91 | 1016.7 |
| 20260507110036 | 72 | 79 | 3.5 | 9.6 | 0.00 | 0.00 | 0.00 | 91 | 1017.7 |
| 20260507105035 | 72 | 43 | 6.1 | 10.4 | 0.00 | 0.00 | 0.00 | 91 | 1017.9 |
| 20260507104524 | 71 | 60 | 5.2 | 8.7 | 0.00 | 0.00 | 0.00 | 91 | 1016.8 |
| 20260507104035 | 72 | 74 | 5.2 | 9.6 | 0.00 | 0.00 | 0.00 | 91 | 1017.9 |
| 20260507103130 | 71 | 72 | 6.1 | 10.4 | 0.00 | 0.00 | 0.00 | 91 | 1016.9 |
| 20260507103036 | 72 | 17 | 9.6 | 10.4 | 0.00 | 0.00 | 0.00 | 91 | 1018.0 |
| 20260507102035 | 72 | 12 | 6.1 | 9.6 | 0.00 | 0.00 | 0.00 | 91 | 1018.0 |
| 20260507101543 | 71 | 42 | 4.3 | 9.6 | 0.00 | 0.00 | 0.00 | 91 | 1016.9 |
| 20260507101036 | 72 | 72 | 6.1 | 10.4 | 0.00 | 0.00 | 0.00 | 91 | 1018.1 |
| 20260507100035 | 72 | 27 | 6.1 | 10.4 | 0.00 | 0.00 | 0.00 | 91 | 1018.2 |
| 20260507100019 | 71 | 36 | 6.1 | 11.3 | 0.00 | 0.00 | 0.00 | 91 | 1017.1 |
| 20260507095035 | 72 | 79 | 6.1 | 9.6 | 0.00 | 0.00 | 0.00 | 91 | 1018.1 |
| 20260507094605 | 71 | 62 | 3.5 | 9.6 | 0.00 | 0.00 | 0.00 | 91 | 1017.1 |
| 20260507094036 | 72 | 69 | 5.2 | 10.4 | 0.00 | 0.00 | 0.00 | 91 | 1018.1 |
| 20260507093046 | 72 | 77 | 4.3 | 10.4 | 0.00 | 0.00 | 0.00 | 91 | 1017.2 |
| 20260507093035 | 72 | 69 | 3.5 | 9.6 | 0.00 | 0.00 | 0.00 | 91 | 1018.3 |
| 20260507092036 | 72 | 33 | 2.6 | 7.8 | 0.00 | 0.00 | 0.00 | 91 | 1018.3 |
| 20260507091515 | 72 | 78 | 5.2 | 8.7 | 0.00 | 0.00 | 0.00 | 91 | 1017.3 |
| 20260507091035 | 72 | 47 | 7.0 | 7.8 | 0.00 | 0.00 | 0.00 | 91 | 1018.4 |
| 20260507090059 | 72 | 61 | 5.2 | 9.6 | 0.00 | 0.00 | 0.00 | 91 | 1017.4 |
| 20260507090035 | 72 | 52 | 6.1 | 8.7 | 0.00 | 0.00 | 0.00 | 91 | 1018.5 |
| 20260507085036 | 72 | 26 | 3.5 | 7.0 | 0.00 | 0.00 | 0.00 | 91 | 1018.5 |
| 20260507084539 | 72 | 17 | 4.3 | 9.6 | 0.00 | 0.00 | 0.00 | 91 | 1017.4 |
| 20260507084035 | 72 | 32 | 2.6 | 10.4 | 0.00 | 0.00 | 0.00 | 91 | 1018.5 |
| 20260507083035 | 72 | 18 | 4.3 | 7.8 | 0.00 | 0.00 | 0.00 | 91 | 1018.5 |
| 20260507083004 | 72 | 20 | 4.3 | 8.7 | 0.00 | 0.00 | 0.00 | 91 | 1017.4 |
| 20260507082035 | 72 | 29 | 5.2 | 9.6 | 0.00 | 0.00 | 0.00 | 91 | 1018.5 |
| 20260507081548 | 72 | 62 | 7.0 | 9.6 | 0.00 | 0.00 | 0.00 | 90 | 1017.4 |
| 20260507081035 | 72 | 16 | 4.3 | 9.6 | 0.00 | 0.00 | 0.00 | 90 | 1018.6 |
| 20260507080036 | 72 | 8 | 2.6 | 10.4 | 0.00 | 0.00 | 0.00 | 90 | 1018.5 |
| 20260507080025 | 72 | 17 | 4.3 | 10.4 | 0.00 | 0.00 | 0.00 | 90 | 1017.4 |
| 20260507075035 | 72 | 358 | 4.3 | 10.4 | 0.00 | 0.00 | 0.00 | 90 | 1018.4 |
| 20260507074552 | 72 | 29 | 2.6 | 10.4 | 0.00 | 0.00 | 0.00 | 90 | 1017.3 |
| 20260507074035 | 72 | 19 | 4.3 | 10.4 | 0.00 | 0.00 | 0.00 | 90 | 1018.3 |
| 20260507073035 | 72 | 21 | 4.3 | 9.6 | 0.00 | 0.00 | 0.00 | 89 | 1018.2 |
| 20260507073023 | 72 | 10 | 4.3 | 9.6 | 0.00 | 0.00 | 0.00 | 89 | 1017.3 |
| 20260507072036 | 72 | 16 | 4.3 | 8.7 | 0.00 | 0.00 | 0.00 | 89 | 1018.1 |
| 20260507071605 | 72 | 39 | 4.3 | 9.6 | 0.00 | 0.00 | 0.00 | 89 | 1017.1 |
| 20260507071035 | 72 | 39 | 5.2 | 11.3 | 0.00 | 0.00 | 0.00 | 89 | 1018.1 |
| 20260507070035 | 72 | 18 | 6.1 | 10.4 | 0.00 | 0.00 | 0.00 | 89 | 1016.9 |
| 20260507065035 | 72 | 61 | 7.0 | 9.6 | 0.00 | 0.00 | 0.00 | 88 | 1017.8 |
| 20260507064502 | 72 | 18 | 3.5 | 10.4 | 0.00 | 0.00 | 0.00 | 88 | 1016.7 |
| 20260507064035 | 72 | 353 | 4.3 | 10.4 | 0.00 | 0.00 | 0.00 | 88 | 1017.6 |
| 20260507063041 | 72 | 13 | 3.5 | 11.3 | 0.00 | 0.00 | 0.00 | 88 | 1016.5 |
| 20260507063036 | 72 | 53 | 4.3 | 11.3 | 0.00 | 0.00 | 0.00 | 88 | 1017.5 |
| 20260507062035 | 73 | 3 | 7.8 | 13.9 | 0.00 | 0.00 | 0.00 | 87 | 1017.4 |
| 20260507061508 | 72 | 77 | 8.7 | 13.9 | 0.00 | 0.00 | 0.00 | 87 | 1016.4 |
| 20260507061035 | 72 | 81 | 7.8 | 12.2 | 0.00 | 0.00 | 0.00 | 88 | 1017.3 |
| 20260507060046 | 72 | 31 | 5.2 | 11.3 | 0.00 | 0.00 | 0.00 | 88 | 1016.2 |
| 20260507060035 | 73 | 32 | 4.3 | 13.0 | 0.00 | 0.00 | 0.00 | 88 | 1017.2 |
| 20260507055035 | 72 | 67 | 5.2 | 13.0 | 0.00 | 0.00 | 0.00 | 88 | 1017.0 |
| 20260507054517 | 72 | 32 | 6.1 | 10.4 | 0.00 | 0.00 | 0.00 | 88 | 1015.9 |
| 20260507054035 | 73 | 28 | 7.8 | 12.2 | 0.00 | 0.00 | 0.00 | 88 | 1016.9 |
| 20260507053108 | 72 | 56 | 7.8 | 12.2 | 0.00 | 0.00 | 0.00 | 89 | 1015.7 |
| 20260507053036 | 73 | 24 | 8.7 | 12.2 | 0.00 | 0.00 | 0.00 | 89 | 1016.7 |
| 20260507052035 | 73 | 14 | 7.0 | 9.6 | 0.00 | 0.00 | 0.00 | 89 | 1016.6 |
| 20260507051547 | 72 | 52 | 5.2 | 10.4 | 0.00 | 0.00 | 0.00 | 89 | 1015.6 |
| 20260507051035 | 73 | 12 | 4.3 | 12.2 | 0.00 | 0.00 | 0.00 | 89 | 1016.4 |
| 20260507050035 | 73 | 356 | 7.0 | 10.4 | 0.00 | 0.00 | 0.00 | 89 | 1016.3 |
| 20260507045035 | 73 | 61 | 9.6 | 10.4 | 0.00 | 0.00 | 0.00 | 89 | 1016.2 |
| 20260507044600 | 72 | 16 | 5.2 | 11.3 | 0.00 | 0.00 | 0.00 | 89 | 1015.1 |
| 20260507044035 | 73 | 22 | 8.7 | 11.3 | 0.00 | 0.00 | 0.00 | 89 | 1016.1 |
| 20260507043039 | 72 | 123 | 6.1 | 13.9 | 0.00 | 0.00 | 0.00 | 89 | 1015.1 |
| 20260507043035 | 73 | 60 | 7.0 | 13.0 | 0.00 | 0.00 | 0.00 | 89 | 1016.1 |
| 20260507042035 | 73 | 16 | 6.1 | 11.3 | 0.00 | 0.00 | 0.00 | 89 | 1015.9 |
| 20260507041515 | 72 | 12 | 6.1 | 12.2 | 0.00 | 0.00 | 0.00 | 89 | 1014.9 |
| 20260507041035 | 73 | 60 | 11.3 | 12.2 | 0.00 | 0.00 | 0.00 | 89 | 1015.8 |
| 20260507040100 | 73 | 32 | 9.6 | 12.2 | 0.00 | 0.00 | 0.00 | 89 | 1014.6 |
| 20260507040035 | 73 | 60 | 9.6 | 12.2 | 0.00 | 0.00 | 0.00 | 89 | 1015.6 |
| 20260507035035 | 73 | 9 | 4.3 | 14.8 | 0.00 | 0.00 | 0.00 | 89 | 1015.5 |
| 20260507034535 | 73 | 20 | 8.7 | 13.0 | 0.00 | 0.00 | 0.00 | 89 | 1014.6 |
| 20260507034035 | 73 | 20 | 6.1 | 12.2 | 0.00 | 0.00 | 0.00 | 89 | 1015.3 |
| 20260507033035 | 74 | 69 | 8.7 | 11.3 | 0.00 | 0.00 | 0.00 | 89 | 1015.3 |
| 20260507033019 | 73 | 19 | 7.0 | 11.3 | 0.00 | 0.00 | 0.00 | 89 | 1014.4 |
| 20260507032035 | 74 | 72 | 4.3 | 13.9 | 0.00 | 0.00 | 0.00 | 89 | 1015.2 |
| 20260507031607 | 73 | 16 | 8.7 | 14.8 | 0.00 | 0.00 | 0.00 | 89 | 1014.3 |
| 20260507031035 | 74 | 71 | 10.4 | 14.8 | 0.00 | 0.00 | 0.00 | 88 | 1015.1 |
| 20260507030042 | 74 | 32 | 7.0 | 15.6 | 0.00 | 0.00 | 0.00 | 87 | 1014.1 |
| 20260507030035 | 74 | 36 | 8.7 | 15.6 | 0.00 | 0.00 | 0.00 | 87 | 1015.1 |
| 20260507025035 | 74 | 18 | 11.3 | 16.5 | 0.00 | 0.00 | 0.00 | 86 | 1015.0 |
| 20260507024523 | 74 | 48 | 8.7 | 13.9 | 0.00 | 0.00 | 0.00 | 86 | 1014.0 |
| 20260507024035 | 74 | 10 | 6.1 | 13.9 | 0.00 | 0.00 | 0.00 | 86 | 1015.0 |
| 20260507023109 | 74 | 22 | 10.4 | 15.6 | 0.00 | 0.00 | 0.00 | 84 | 1014.0 |
| 20260507023035 | 75 | 50 | 11.3 | 15.6 | 0.00 | 0.00 | 0.00 | 84 | 1014.9 |
| 20260507022035 | 75 | 27 | 5.2 | 14.8 | 0.00 | 0.00 | 0.00 | 84 | 1014.9 |
| 20260507021540 | 75 | 76 | 8.7 | 15.6 | 0.00 | 0.00 | 0.00 | 85 | 1013.9 |
| 20260507021035 | 75 | 86 | 7.0 | 16.5 | 0.00 | 0.00 | 0.00 | 86 | 1014.9 |
| 20260507020035 | 75 | 79 | 10.4 | 14.8 | 0.00 | 0.00 | 0.00 | 85 | 1015.0 |
| 20260507020002 | 74 | 53 | 8.7 | 15.6 | 0.00 | 0.00 | 0.00 | 85 | 1014.1 |
| 20260507015035 | 75 | 49 | 7.0 | 14.8 | 0.00 | 0.00 | 0.00 | 85 | 1015.1 |
| 20260507014619 | 74 | 8 | 8.7 | 14.8 | 0.00 | 0.00 | 0.00 | 84 | 1014.1 |
| 20260507014035 | 75 | 20 | 7.8 | 13.0 | 0.00 | 0.00 | 0.00 | 85 | 1015.0 |
| 20260507013045 | 74 | 16 | 8.7 | 14.8 | 0.00 | 0.00 | 0.00 | 85 | 1014.2 |
| 20260507013035 | 75 | 68 | 8.7 | 14.8 | 0.00 | 0.00 | 0.00 | 85 | 1015.1 |
| 20260507012035 | 75 | 21 | 8.7 | 14.8 | 0.00 | 0.00 | 0.00 | 83 | 1015.0 |
| 20260507011517 | 75 | 354 | 7.0 | 14.8 | 0.00 | 0.00 | 0.00 | 84 | 1014.2 |
| 20260507011035 | 75 | 39 | 8.7 | 14.8 | 0.00 | 0.00 | 0.00 | 84 | 1015.1 |
| 20260507010035 | 75 | 98 | 10.4 | 15.6 | 0.00 | 0.00 | 0.00 | 83 | 1015.2 |
| 20260507005035 | 76 | 54 | 9.6 | 15.6 | 0.00 | 0.00 | 0.00 | 83 | 1015.2 |
| 20260507004531 | 76 | 359 | 11.3 | 19.1 | 0.00 | 0.00 | 0.00 | 82 | 1014.4 |
| 20260507004035 | 77 | 86 | 13.9 | 19.1 | 0.00 | 0.00 | 0.00 | 82 | 1015.4 |
| 20260507003035 | 77 | 57 | 7.0 | 15.6 | 0.00 | 0.00 | 0.00 | 83 | 1015.5 |
| 20260507003004 | 76 | 65 | 11.3 | 15.6 | 0.00 | 0.00 | 0.00 | 83 | 1014.5 |
| 20260507002035 | 77 | 93 | 9.6 | 14.8 | 0.00 | 0.00 | 0.00 | 79 | 1015.6 |
| 20260507001602 | 77 | 39 | 8.7 | 16.5 | 0.00 | 0.00 | 0.00 | 80 | 1014.6 |
| 20260507001035 | 77 | 99 | 12.2 | 13.0 | 0.00 | 0.00 | 0.00 | 79 | 1015.6 |
| 20260507000035 | 77 | 136 | 5.2 | 13.0 | 0.00 | 0.00 | 0.00 | 81 | 1015.7 |
| 20260507000026 | 76 | 100 | 7.0 | 12.2 | 0.00 | 0.00 | 0.00 | 81 | 1014.8 |
| 20260506235035 | 77 | 91 | 7.8 | 14.8 | 0.00 | 0.00 | 0.00 | 81 | 1015.8 |
| 20260506234628 | 76 | 85 | 9.6 | 15.6 | 0.00 | 0.00 | 0.00 | 79 | 1014.8 |
| 20260506234035 | 77 | 74 | 10.4 | 14.8 | 0.00 | 0.00 | 0.00 | 81 | 1015.8 |
| 20260506233048 | 77 | 71 | 9.6 | 15.6 | 0.00 | 0.00 | 0.00 | 80 | 1015.0 |
| 20260506233035 | 77 | 91 | 9.6 | 15.6 | 0.00 | 0.00 | 0.00 | 79 | 1016.0 |
| 20260506232035 | 78 | 104 | 6.1 | 14.8 | 0.00 | 0.00 | 0.00 | 76 | 1016.0 |
| 20260506231503 | 78 | 19 | 7.8 | 13.9 | 0.00 | 0.00 | 0.00 | 77 | 1015.0 |
| 20260506231035 | 78 | 76 | 10.4 | 13.9 | 0.00 | 0.00 | 0.00 | 77 | 1016.0 |
| 20260506230047 | 77 | 86 | 9.6 | 14.8 | 0.00 | 0.00 | 0.00 | 79 | 1015.0 |
| 20260506230034 | 78 | 67 | 12.2 | 14.8 | 0.00 | 0.00 | 0.00 | 79 | 1016.1 |
| 20260506225035 | 78 | 17 | 8.7 | 14.8 | 0.00 | 0.00 | 0.00 | 79 | 1016.2 |
| 20260506224510 | 77 | 130 | 8.7 | 14.8 | 0.00 | 0.00 | 0.00 | 79 | 1015.2 |
| 20260506224035 | 78 | 55 | 9.6 | 14.8 | 0.00 | 0.00 | 0.00 | 79 | 1016.3 |
| 20260506223104 | 77 | 17 | 7.8 | 13.9 | 0.00 | 0.00 | 0.00 | 79 | 1015.1 |
| 20260506223035 | 78 | 90 | 9.6 | 13.9 | 0.00 | 0.00 | 0.00 | 79 | 1016.3 |
| 20260506222034 | 78 | 64 | 11.3 | 14.8 | 0.00 | 0.00 | 0.00 | 79 | 1016.4 |
| 20260506221521 | 77 | 70 | 9.6 | 13.9 | 0.00 | 0.00 | 0.00 | 79 | 1015.3 |
| 20260506221034 | 78 | 135 | 9.6 | 14.8 | 0.00 | 0.00 | 0.00 | 78 | 1016.4 |
| 20260506220034 | 78 | 22 | 6.1 | 13.9 | 0.00 | 0.00 | 0.00 | 79 | 1016.6 |
| 20260506215034 | 78 | 83 | 11.3 | 13.9 | 0.00 | 0.00 | 0.00 | 77 | 1016.6 |
| 20260506214536 | 77 | 94 | 7.8 | 14.8 | 0.00 | 0.00 | 0.00 | 80 | 1015.7 |
| 20260506214034 | 77 | 69 | 11.3 | 13.9 | 0.00 | 0.00 | 0.00 | 79 | 1016.8 |
| 20260506213034 | 78 | 77 | 8.7 | 13.0 | 0.00 | 0.00 | 0.00 | 80 | 1017.0 |
| 20260506213013 | 77 | 91 | 8.7 | 14.8 | 0.00 | 0.00 | 0.00 | 81 | 1015.8 |
| 20260506212034 | 78 | 15 | 10.4 | 13.0 | 0.00 | 0.00 | 0.00 | 79 | 1017.0 |
| 20260506211555 | 77 | 67 | 7.0 | 13.9 | 0.00 | 0.00 | 0.00 | 80 | 1015.9 |
| 20260506211034 | 77 | 66 | 6.1 | 13.9 | 0.00 | 0.00 | 0.00 | 79 | 1016.9 |
| 20260506210034 | 78 | 67 | 9.6 | 14.8 | 0.00 | 0.00 | 0.00 | 79 | 1017.0 |
| 20260506205034 | 77 | 55 | 7.0 | 13.9 | 0.00 | 0.00 | 0.00 | 80 | 1017.0 |
| 20260506204611 | 77 | 74 | 8.7 | 14.8 | 0.00 | 0.00 | 0.00 | 79 | 1016.0 |
| 20260506204034 | 78 | 22 | 9.6 | 12.2 | 0.00 | 0.00 | 0.00 | 78 | 1016.9 |
| 20260506203041 | 76 | 68 | 6.1 | 13.0 | 0.00 | 0.00 | 0.00 | 78 | 1016.0 |
| 20260506203034 | 77 | 43 | 6.1 | 13.0 | 0.00 | 0.00 | 0.00 | 79 | 1017.0 |
| 20260506202034 | 77 | 92 | 4.3 | 12.2 | 0.00 | 0.00 | 0.00 | 81 | 1016.9 |
| 20260506201518 | 77 | 33 | 7.8 | 13.0 | 0.00 | 0.00 | 0.00 | 81 | 1015.9 |
| 20260506201034 | 77 | 117 | 6.1 | 12.2 | 0.00 | 0.00 | 0.00 | 80 | 1016.9 |
| 20260506200100 | 77 | 67 | 5.2 | 10.4 | 0.00 | 0.00 | 0.00 | 80 | 1015.9 |
| 20260506200035 | 77 | 28 | 4.3 | 10.4 | 0.00 | 0.00 | 0.00 | 81 | 1016.9 |
| 20260506195035 | 78 | 118 | 5.2 | 10.4 | 0.00 | 0.00 | 0.00 | 80 | 1017.1 |
| 20260506194544 | 77 | 77 | 6.1 | 10.4 | 0.00 | 0.00 | 0.00 | 79 | 1016.0 |
| 20260506194034 | 77 | 21 | 4.3 | 10.4 | 0.00 | 0.00 | 0.00 | 79 | 1016.9 |
| 20260506193034 | 77 | 65 | 6.1 | 9.6 | 0.00 | 0.00 | 0.00 | 81 | 1017.0 |
| 20260506193012 | 77 | 76 | 3.5 | 10.4 | 0.00 | 0.00 | 0.00 | 81 | 1016.0 |
| 20260506192034 | 76 | 91 | 7.8 | 8.7 | 0.00 | 0.00 | 0.00 | 80 | 1016.8 |
| 20260506191600 | 76 | 94 | 5.2 | 8.7 | 0.00 | 0.00 | 0.00 | 79 | 1015.9 |
| 20260506191034 | 77 | 152 | 2.6 | 8.7 | 0.00 | 0.00 | 0.00 | 81 | 1016.8 |
| 20260506190034 | 76 | 129 | 6.1 | 8.7 | 0.00 | 0.00 | 0.00 | 81 | 1016.8 |
| 20260506190026 | 76 | 123 | 4.3 | 8.7 | 0.00 | 0.00 | 0.00 | 81 | 1015.8 |
| 20260506185034 | 76 | 123 | 1.7 | 7.0 | 0.00 | 0.00 | 0.00 | 81 | 1016.7 |
| 20260506184604 | 75 | 123 | 4.3 | 7.0 | 0.00 | 0.00 | 0.00 | 82 | 1015.6 |
| 20260506184034 | 76 | 122 | 3.5 | 7.0 | 0.00 | 0.00 | 0.00 | 81 | 1016.6 |
| 20260506183043 | 75 | 95 | 5.2 | 7.8 | 0.00 | 0.00 | 0.00 | 81 | 1015.6 |
| 20260506183034 | 76 | 93 | 7.0 | 7.8 | 0.00 | 0.00 | 0.00 | 81 | 1016.6 |
| 20260506182034 | 75 | 72 | 3.5 | 7.0 | 0.00 | 0.00 | 0.00 | 79 | 1016.5 |
| 20260506181533 | 75 | 72 | 4.3 | 8.7 | 0.00 | 0.00 | 0.00 | 78 | 1015.5 |
| 20260506181034 | 75 | 71 | 4.3 | 8.7 | 0.00 | 0.00 | 0.00 | 77 | 1016.5 |
| 20260506180034 | 76 | 24 | 2.6 | 7.8 | 0.00 | 0.00 | 0.00 | 77 | 1016.3 |
| 20260506180003 | 75 | 25 | 4.3 | 8.7 | 0.00 | 0.00 | 0.00 | 77 | 1015.3 |
| 20260506175034 | 76 | 95 | 2.6 | 4.3 | 0.00 | 0.00 | 0.00 | 76 | 1016.3 |
| 20260506174550 | 75 | 132 | 2.6 | 3.5 | 0.00 | 0.00 | 0.00 | 77 | 1015.4 |
| 20260506174034 | 76 | 77 | 1.7 | 3.5 | 0.00 | 0.00 | 0.00 | 78 | 1016.2 |
| 20260506173034 | 75 | 93 | 1.7 | 5.2 | 0.00 | 0.00 | 0.00 | 77 | 1016.0 |
| 20260506173009 | 74 | 91 | 2.6 | 5.2 | 0.00 | 0.00 | 0.00 | 78 | 1015.0 |
| 20260506172034 | 75 | 72 | 3.5 | 4.3 | 0.00 | 0.00 | 0.00 | 76 | 1016.0 |
| 20260506171609 | 75 | 71 | 2.6 | 4.3 | 0.00 | 0.00 | 0.00 | 74 | 1014.9 |
| 20260506171034 | 76 | 159 | 0.0 | 1.7 | 0.00 | 0.00 | 0.00 | 78 | 1015.8 |
| 20260506170036 | 74 | 272 | 0.0 | 0.9 | 0.00 | 0.00 | 0.00 | 84 | 1014.7 |
| 20260506170034 | 74 | 272 | 0.0 | 0.9 | 0.00 | 0.00 | 0.00 | 85 | 1015.6 |
| 20260506165034 | 72 | 273 | 0.0 | 0.9 | 0.00 | 0.00 | 0.00 | 86 | 1015.5 |
| 20260506164608 | 70 | 302 | 0.0 | 0.9 | 0.00 | 0.00 | 0.00 | 87 | 1014.6 |
| 20260506164034 | 70 | 302 | 0.0 | 1.7 | 0.00 | 0.00 | 0.00 | 87 | 1015.3 |
| 20260506163056 | 69 | 292 | 1.7 | 4.3 | 0.00 | 0.00 | 0.00 | 87 | 1014.4 |
| 20260506163034 | 69 | 299 | 1.7 | 5.2 | 0.00 | 0.00 | 0.00 | 87 | 1015.2 |
| 20260506162034 | 69 | 274 | 4.3 | 5.2 | 0.00 | 0.00 | 0.00 | 86 | 1015.1 |
| 20260506161525 | 68 | 286 | 3.5 | 5.2 | 0.00 | 0.00 | 0.00 | 86 | 1014.3 |
| 20260506161034 | 69 | 297 | 2.6 | 6.1 | 0.00 | 0.00 | 0.00 | 86 | 1015.0 |
| 20260506160034 | 69 | 261 | 4.3 | 6.1 | 0.00 | 0.00 | 0.00 | 86 | 1015.0 |
| 20260506160004 | 68 | 245 | 3.5 | 6.1 | 0.00 | 0.00 | 0.00 | 86 | 1014.2 |
| 20260506155034 | 69 | 278 | 4.3 | 5.2 | 0.00 | 0.00 | 0.00 | 87 | 1014.9 |
| 20260506154611 | 68 | 339 | 3.5 | 5.2 | 0.00 | 0.00 | 0.00 | 87 | 1014.1 |
| 20260506154034 | 69 | 310 | 2.6 | 5.2 | 0.00 | 0.00 | 0.00 | 87 | 1014.9 |
| 20260506153034 | 69 | 329 | 2.6 | 4.3 | 0.00 | 0.00 | 0.00 | 87 | 1014.8 |
| 20260506153028 | 68 | 300 | 3.5 | 4.3 | 0.00 | 0.00 | 0.00 | 87 | 1014.0 |
| 20260506152034 | 69 | 294 | 1.7 | 4.3 | 0.00 | 0.00 | 0.00 | 86 | 1014.7 |
| 20260506151508 | 68 | 266 | 2.6 | 5.2 | 0.00 | 0.00 | 0.00 | 87 | 1013.9 |
| 20260506151034 | 68 | 311 | 3.5 | 5.2 | 0.00 | 0.00 | 0.00 | 87 | 1014.7 |
| 20260506150055 | 68 | 296 | 3.5 | 6.1 | 0.00 | 0.00 | 0.00 | 87 | 1013.6 |
| 20260506150034 | 68 | 261 | 3.5 | 5.2 | 0.00 | 0.00 | 0.00 | 87 | 1014.4 |